Pagina principale
METAR-TAF:

METAR-TAF

Aeroporti :

New Bedford, Massachusetts, Stati Uniti

latitudine: 41-40-31N, longitudine: 070-57-25W, altezza: 24 m

Osservazione

Il bollettino è stato emesso 27 minuti fa, alle 07:53 UTC
Vento calmo
Temperature 22°C
Umidità 94%
Pressione 1013 hPa
Visibilità: 16.1 km
Cielo sereno

METAR: KEWB 160753Z AUTO 00000KT 10SM CLR 22/21 A2992 RMK AO2 SLP130 T02170211

Ora: 04:20 (08:20 UTC)


TAF: mancante

Osservazioni e previsioni meteorologiche di più di 4000 aeroporti (messaggi METAR e TAF).

Le stazioni disponibili sono rappresentate dai dischi gialli e rossi sulla carta.

Puntare il mouse per vedere il nome della stazione.

Clicca sopra per visualizzare le osservazioni e previsioni meteorologiche.

Per cambiare la mappa : fare clic sui pulsanti verdi con una croce nera per ingrandire, il pulsante verde con un trattino per diminuire, o sulla freccia verde per le mappe adiacenti.


METAR-TAF: